Regional Weather Roundup
Issued by NWS New Orleans/Baton Rouge, LA

Home | Current Version | Previous Version | Text Only | Print | Product List | Glossary On
Versions: 1 2 3 4 5 6 7 8 9 10 11 12 13 14 15 16 17 18 19 20 21 22 23 24 25 26 27 28 29 30 31 32 33 34 35 36 37 38 39 40 41 42 43 44 45 46 47 48 49 50
362
ASUS44 KLIX 212001
RWRLIX
NEW ORLEANS REGIONAL WEATHER ROUNDUP
NATIONAL WEATHER SERVICE NEW ORLEANS LA
300 PM CDT THU AUG 21 2014

NOTE: "FAIR" INDICATES FEW OR NO CLOUDS BELOW 12,000 FEET WITH NO
      SIGNIFICANT WEATHER AND/OR OBSTRUCTIONS TO VISIBILITY.
      SKY/WX - SKY CONDITION AND SIGNIFICANT WEATHER.
      TMP - AIR TEMPERATURE.     DP    - DEWPOINT TEMPERATURE.
      RH  - RELATIVE HUMIDITY.   PRES  - PRESSURE.
      HI  - HEAT INDEX.          WCI   - WIND CHILL INDEX.

*  THESE STATIONS ARE NOT NWS OR FAA STATIONS AND ARE NOT UNDER
   NWS QUALITY CONTROL.

LAZ038-040-048-061>063-065>067-069-212100-
SOUTHEAST LOUISIANA

CITY           SKY/WX    TMP DP  RH WIND       PRES   REMARKS
N.O. AUDUBON     N/A     98  76  48 MISG        N/A  HX 111
N.O. INTL ARPT PTSUNNY   94  75  54 NE10      30.08F HX 105
N.O. LAKEFRONT MOSUNNY   91  77  63 NE8       30.10F HX 104
N.O. DOWNTOWN*   N/A     93  73  52 NE8       30.09F HX 102
SLIDELL        MOSUNNY   92  71  50 SW7       30.08F HX  98
BATON ROUGE    PTSUNNY   90  76  63 VRB6      30.09F HX 101
BOOTHVILLE     MOSUNNY   90  77  65 E7        30.11F HX 103
BELLE CHASSE   PTSUNNY   93  72  50 VRB6      30.08F THUNDER HX 101
BOGALUSA*        N/A     95  71  44 S3        30.10F HX 102
GALLIANO*      NOT AVBL
NEW ROADS*       N/A     86  74  65 CALM      30.11R
GONZALES*        N/A     93  76  58 SW5       30.08F HX 105
HAMMOND*       NOT AVBL
HOUMA*         SHOWER    82  70  65 SW6       30.12R
PORT FOURCHON* CLEAR     90  75  62 VRB7      30.12F HX 100

$$

MSZ070-080>082-212100-
SOUTHERN MISSISSIPPI

CITY           SKY/WX    TMP DP  RH WIND       PRES   REMARKS
MCCOMB         TSTM      82  73  74 N7G17     30.11S
GULFPORT       MOSUNNY   91  72  53 S8        30.08F HX  98
BILOXI         MOSUNNY   92  73  53 S9        30.09F HX 101
PASCAGOULA     MOSUNNY   92  74  55 S9        30.09F HX 101
STENNIS ARPT*  MOSUNNY  N/A N/A N/A CALM      30.09F

$$

COASTAL OBSERVATIONS
LAKE AND NEARSHORE STATIONS

STATION/POSITION TIME  TEMP    WIND        PRES    WAVE
                       AIR SEA DIR/SP/G            HT/PER
                 (UTC) (F)     (DEG/KT/KT) (MB)    (FT/S)
PASCAGOULA       1900   89     220/  8/ 10 1019.1
WAVELAND YACHT   1900   87     160/ 10/ 11 1018.6
GRAND ISLE       1900   88 89  160/  5/  8 1020.2
SOUTHWEST PASS   1900   90 89  130/  2/  3 1020.1
NEW CANAL        1900   87 85   40/  8/  9 1019.6
SHELL BEACH      1900   86 85  170/  1/  5 1019.4

OFFSHORE STATIONS

STATION/POSITION TIME  TEMP    WIND        PRES    WAVE
                       AIR SEA DIR/SP/G            HT/PER
                 (UTC) (F)     (DEG/KT/KT) (MB)    (FT/S)
64 S DAUPHIN ISL 1933   86 92   90/  2/  4 1020.0

$$




USA.gov is the U.S. government's official web portal to all federal, state and local government web resources and services.